Tracking 19192 objects as of 20-Jun-2018
HD Live streaming from Space Station
objects crossing your sky now

DSCS 3-1

Track DSCS 3-1 now!
DSCS 3-1 is classified as:


NORAD ID: 13637
Int'l Code: 1982-106B
Perigee: 36,446.7 km
Apogee: 36,544.5 km
Inclination: 15.3 °
Period: 1,472.1 minutes
Semi major axis: 42866 km
RCS: Unknown
Launch date: October 30, 1982
Source: United States (US)
Launch site: AIR FORCE EASTERN TEST RANGE (AFETR)
aabbcc
Your satellite tracking list
Your tracking list is empty




NASA's NSSDC Master Catalog

Two Line Element Set (TLE):
1 13637U 82106B   18088.85692912 0.00000000  00000-0  00000-0 0    07
2 13637  15.3022 357.1876 0011405 122.6710 237.4511  0.97819240    05
Source of the keplerian elements: McCants